Weather History for Tallahassee, FL

Change the Weather History Date:

Friday, May 23, 2014

  Actual Average Record
Temperature  
Mean Temperature 80 °F 76 °F  
Max Temperature 95 °F 89 °F 99 °F (1996)
Min Temperature 65 °F 64 °F 48 °F (1993)
Degree Days  
Heating Degree Days 0    
Month to date heating degree days 1  
Since 1 July heating degree days 1360  
Cooling Degree Days 15    
Month to date cooling degree days 206  
Year to date cooling degree days 365  
Growing Degree Days 30 (Base 50)    
Moisture  
Dew Point 63 °F    
Average Humidity 59    
Maximum Humidity 87    
Minimum Humidity 30    
Precipitation  
Precipitation 0.00 in 0.13 in 3.02 in (1976)
Month to date precipitation 1.10 2.26  
Year to date precipitation 31.84 20.45  
Sea Level Pressure  
Sea Level Pressure 30.07 in    
Wind  
Wind Speed 5 mph (NW)    
Max Wind Speed 13 mph    
Max Gust Speed 18 mph    
Visibility 8 miles    
Events      
T = Trace of Precipitation, MM = Missing Value Source: NWS Daily Summary

Daily Weather History Graph

Daily Weather History Graph

Search for Another Location

Airport:

Trip Planner

Search our weather history database for the weather conditions in past years. The results will help you decide how hot, cold, wet, or windy it might be!

Date:

Astronomy

May. 23, 2014 Rise Set
Actual Time 6:38 AM EDT 8:29 PM EDT
Civil Twilight 6:12 AM EDT 8:56 PM EDT
Nautical Twilight 5:39 AM EDT 9:28 PM EDT
Astronomical Twilight 5:05 AM EDT 10:03 PM EDT
Moon 3:09 AM EDT (5/23) 3:42 PM EDT (5/23)
Length of Visible Light 14h 44m
Length of Day
13h 50m
Waning Crescent, 27% of the Moon is Illuminated
May 23
Waning Crescent
May 28
New
Jun 5
First Quarter
Jun 13
Full
Jun 19
Last Quarter

Hourly Weather History & Observations

Time (EDT) Temp. Heat Index Dew Point Humidity Pressure Visibility Wind Dir Wind Speed Gust Speed Precip Events Conditions
12:53 AM 73.0 °F - 62.1 °F 68% 30.09 in 10.0 mi West 3.5 mph - N/A   Clear
1:53 AM 71.1 °F - 62.1 °F 73% 30.08 in 10.0 mi Calm Calm - N/A   Clear
2:53 AM 66.9 °F - 61.0 °F 81% 30.06 in 8.0 mi Calm Calm - N/A   Clear
3:53 AM 66.9 °F - 61.0 °F 81% 30.06 in 8.0 mi Calm Calm - N/A   Clear
4:53 AM 66.0 °F - 62.1 °F 87% 30.06 in 5.0 mi Calm Calm - N/A   Clear
5:53 AM 66.9 °F - 63.0 °F 87% 30.07 in 6.0 mi Calm Calm - N/A   Clear
6:53 AM 66.9 °F - 63.0 °F 87% 30.09 in 3.0 mi Calm Calm - N/A   Clear
7:53 AM 70.0 °F - 64.9 °F 84% 30.11 in 4.0 mi Calm Calm - N/A   Haze
8:53 AM 75.9 °F - 64.9 °F 69% 30.12 in 8.0 mi WNW 6.9 mph - N/A   Clear
9:53 AM 82.0 °F 83.8 °F 64.9 °F 56% 30.12 in 9.0 mi NW 9.2 mph - N/A   Clear
10:53 AM 87.1 °F 88.9 °F 64.9 °F 48% 30.12 in 10.0 mi NW 9.2 mph - N/A   Partly Cloudy
11:53 AM 89.1 °F 90.3 °F 64.0 °F 43% 30.11 in 10.0 mi NNW 10.4 mph 16.1 mph N/A   Partly Cloudy
12:53 PM 91.9 °F 92.9 °F 63.0 °F 38% 30.10 in 10.0 mi NW 12.7 mph 18.4 mph N/A   Scattered Clouds
1:53 PM 91.9 °F 92.5 °F 62.1 °F 37% 30.08 in 10.0 mi NW 10.4 mph 16.1 mph N/A   Scattered Clouds
2:53 PM 93.9 °F 94.0 °F 61.0 °F 33% 30.06 in 9.0 mi Variable 4.6 mph 17.3 mph N/A   Scattered Clouds
3:53 PM 95.0 °F 95.2 °F 61.0 °F 32% 30.04 in 9.0 mi West 11.5 mph - N/A   Scattered Clouds
4:53 PM 95.0 °F 95.2 °F 61.0 °F 32% 30.03 in 9.0 mi NW 11.5 mph 18.4 mph N/A   Partly Cloudy
5:53 PM 95.0 °F 94.4 °F 59.0 °F 30% 30.01 in 10.0 mi NNE 9.2 mph - N/A   Partly Cloudy
6:53 PM 93.0 °F 92.3 °F 59.0 °F 32% 30.02 in 10.0 mi NW 9.2 mph - N/A   Partly Cloudy
7:53 PM 91.9 °F 91.5 °F 60.1 °F 34% 30.02 in 9.0 mi NW 4.6 mph - N/A   Partly Cloudy
8:53 PM 82.9 °F 84.4 °F 64.0 °F 53% 30.03 in 10.0 mi Calm Calm - N/A   Scattered Clouds
9:53 PM 80.1 °F 81.7 °F 64.0 °F 58% 30.04 in 8.0 mi Calm Calm - N/A   Scattered Clouds
10:53 PM 75.0 °F - 64.0 °F 69% 30.05 in 6.0 mi Calm Calm - N/A   Haze
11:53 PM 75.9 °F - 64.9 °F 69% 30.06 in 7.0 mi North - - N/A   Clear